,,,PA_Meas_PMT16A,,PR_Meas_QMR101_102,,RH_Meas_QMH101,,SR_Meas_QMS101,,TA_Meas_QMH101,,GenWind,,GenWind,
date,time,status,PA,status,PR,status,RH,status,SR,status,TA,status,DirAvg,status,SpdAvg,
2012-01-03, 00:00:04,VALID,1000.79,VALID,0,VALID,93.4476,VALID,0,VALID,24.1696,VALID,315,VALID,0,
2012-01-03, 00:01:04,VALID,1000.75,VALID,0,VALID,93.4705,VALID,0,VALID,24.15,VALID,315,VALID,0,
2012-01-03, 00:02:04,VALID,1000.78,VALID,0,VALID,93.501,VALID,0,VALID,24.1482,VALID,315,VALID,0,
2012-01-03, 00:03:04,VALID,1000.79,VALID,0,VALID,93.5086,VALID,0,VALID,24.1696,VALID,315,VALID,0,
2012-01-03, 00:04:04,VALID,1000.8,VALID,0,VALID,93.5315,VALID,0,VALID,24.1891,VALID,315,VALID,0,
2012-01-03, 00:05:04,VALID,1000.75,VALID,0,VALID,93.5468,VALID,0,VALID,24.1677,VALID,47,VALID,0,
2012-01-03, 00:06:04,VALID,1000.78,VALID,0,VALID,93.5544,VALID,0,VALID,24.1891,VALID,47,VALID,0,
2012-01-03, 00:07:04,VALID,1000.78,VALID,0,VALID,93.562,VALID,0,VALID,24.2086,VALID,47,VALID,0,
2012-01-03, 00:08:04,VALID,1000.77,VALID,0,VALID,93.5697,VALID,0,VALID,24.2067,VALID,47,VALID,0,
2012-01-03, 00:09:04,VALID,1000.79,VALID,0,VALID,93.5468,VALID,0,VALID,24.2086,VALID,36,VALID,1.03789,
2012-01-03, 00:10:04,VALID,1000.78,VALID,0,VALID,93.5239,VALID,0,VALID,24.2086,VALID,44,VALID,0.795313,
2012-01-03, 00:11:04,VALID,1000.77,VALID,0,VALID,93.5086,VALID,0,VALID,24.2086,VALID,44,VALID,0.621094,
2012-01-03, 00:12:04,VALID,1000.73,VALID,0,VALID,93.5239,VALID,0,VALID,24.1891,VALID,44,VALID,0.602344,
2012-01-03, 00:13:04,VALID,1000.76,VALID,0,VALID,93.5315,VALID,0,VALID,24.1891,VALID,44,VALID,0.657422,
2012-01-03, 00:14:04,VALID,1000.75,VALID,0,VALID,93.5163,VALID,0,VALID,24.2086,VALID,49,VALID,0.679297,
2012-01-03, 00:15:04,VALID,1000.73,VALID,0,VALID,93.5315,VALID,0,VALID,24.2086,VALID,49,VALID,0.507422,
2012-01-03, 00:16:04,VALID,1000.75,VALID,0,VALID,93.5391,VALID,0,VALID,24.2281,VALID,49,VALID,1.07344,
2012-01-03, 00:17:04,VALID,1000.74,VALID,0,VALID,93.5391,VALID,0,VALID,24.2281,VALID,49,VALID,0.639063,
2012-01-03, 00:18:04,VALID,1000.73,VALID,0,VALID,93.5544,VALID,0,VALID,24.2281,VALID,46,VALID,1.0707,
2012-01-03, 00:19:05,VALID,1000.73,VALID,0,VALID,93.5544,VALID,0,VALID,24.2067,VALID,45,VALID,0.945703,
2012-01-03, 00:20:05,VALID,1000.68,VALID,0,VALID,93.5544,VALID,0,VALID,24.2281,VALID,36,VALID,0.670703,
2012-01-03, 00:21:05,VALID,1000.69,VALID,0,VALID,93.5239,VALID,0,VALID,24.2281,VALID,18,VALID,1.00312,
2012-01-03, 00:22:05,VALID,1000.67,VALID,0,VALID,93.4781,VALID,0,VALID,24.2086,VALID,19,VALID,0.996484,
2012-01-03, 00:23:05,VALID,1000.64,VALID,0,VALID,93.4247,VALID,0,VALID,24.2086,VALID,18,VALID,1.04844,
2012-01-03, 00:24:05,VALID,1000.59,VALID,0,VALID,93.3637,VALID,0,VALID,24.2067,VALID,19,VALID,0.980469,
2012-01-03, 00:25:05,VALID,1000.58,VALID,0,VALID,93.295,VALID,0,VALID,24.2086,VALID,19,VALID,0.923828,
2012-01-03, 00:26:05,VALID,1000.55,VALID,0,VALID,93.2416,VALID,0,VALID,24.2086,VALID,19,VALID,0.833594,
2012-01-03, 00:27:05,VALID,1000.55,VALID,0,VALID,93.2187,VALID,0,VALID,24.2281,VALID,2,VALID,1.03398,
2012-01-03, 00:28:05,VALID,1000.53,VALID,0,VALID,93.1729,VALID,0,VALID,24.1872,VALID,344,VALID,0.70625,
2012-01-03, 00:29:05,VALID,1000.57,VALID,0,VALID,93.1805,VALID,0,VALID,24.2086,VALID,325,VALID,0.815625,
2012-01-03, 00:30:05,VALID,1000.53,VALID,0,VALID,93.1958,VALID,0,VALID,24.2281,VALID,323,VALID,0.700781,
2012-01-03, 00:31:05,VALID,1000.52,VALID,0,VALID,93.1653,VALID,0,VALID,24.2263,VALID,313,VALID,0.418359,
2012-01-03, 00:32:05,VALID,1000.5,VALID,0,VALID,93.1119,VALID,0,VALID,24.2281,VALID,328,VALID,0.594531,
2012-01-03, 00:33:05,VALID,1000.5,VALID,0,VALID,93.1043,VALID,0,VALID,24.2263,VALID,1,VALID,0.8875,
2012-01-03, 00:34:05,VALID,1000.5,VALID,0,VALID,93.089,VALID,0,VALID,24.2476,VALID,6,VALID,0.710156,
2012-01-03, 00:35:05,VALID,1000.49,VALID,0,VALID,93.0356,VALID,0.104696,VALID,24.2263,VALID,341,VALID,1.08711,
2012-01-03, 00:36:05,VALID,1000.48,VALID,0,VALID,92.9974,VALID,0,VALID,24.2671,VALID,338,VALID,1.45273,
2012-01-03, 00:37:05,VALID,1000.5,VALID,0,VALID,92.8525,VALID,0,VALID,24.3062,VALID,311,VALID,0.932422,
2012-01-03, 00:38:05,VALID,1000.49,VALID,0,VALID,92.7991,VALID,0,VALID,24.2848,VALID,312,VALID,0.846484,
2012-01-03, 00:39:05,VALID,1000.48,VALID,0,VALID,92.6999,VALID,0,VALID,24.3452,VALID,311,VALID,0.694531,
2012-01-03, 00:40:05,VALID,1000.47,VALID,0,VALID,92.616,VALID,0,VALID,24.3433,VALID,304,VALID,0.710156,
2012-01-03, 00:41:05,VALID,1000.5,VALID,0,VALID,92.4786,VALID,0,VALID,24.3433,VALID,308,VALID,0.771875,
2012-01-03, 00:42:05,VALID,1000.47,VALID,0,VALID,92.2955,VALID,0,VALID,24.3647,VALID,281,VALID,0.980469,
2012-01-03, 00:43:05,VALID,1000.47,VALID,0,VALID,92.1658,VALID,0,VALID,24.3629,VALID,280,VALID,0.413281,
2012-01-03, 00:44:05,VALID,1000.45,VALID,0,VALID,92.0361,VALID,0,VALID,24.3842,VALID,279,VALID,0.794141,
2012-01-03, 00:45:05,VALID,1000.47,VALID,0,VALID,91.9751,VALID,0,VALID,24.4037,VALID,276,VALID,0.388672,
2012-01-03, 00:46:05,VALID,1000.48,VALID,0,VALID,91.998,VALID,0,VALID,24.4019,VALID,276,VALID,0.511719,
2012-01-03, 00:47:05,VALID,1000.46,VALID,0,VALID,91.914,VALID,0,VALID,24.4019,VALID,273,VALID,0.759766,
2012-01-03, 00:48:05,VALID,1000.45,VALID,0,VALID,91.9674,VALID,0,VALID,24.4214,VALID,259,VALID,0.660547,
2012-01-03, 00:49:05,VALID,1000.43,VALID,0,VALID,92.0514,VALID,0,VALID,24.4623,VALID,259,VALID,0.353516,
2012-01-03, 00:50:05,VALID,1000.48,VALID,0,VALID,92.0895,VALID,0,VALID,24.4409,VALID,259,VALID,0.349219,
2012-01-03, 00:51:05,VALID,1000.42,VALID,0,VALID,92.1277,VALID,0,VALID,24.4604,VALID,291,VALID,1.00586,
2012-01-03, 00:52:05,VALID,1000.44,VALID,0,VALID,92.1734,VALID,0,VALID,24.4409,VALID,292,VALID,0.494531,
2012-01-03, 00:53:05,VALID,1000.42,VALID,0,VALID,92.0514,VALID,0,VALID,24.4428,VALID,294,VALID,0.766016,
2012-01-03, 00:54:05,VALID,1000.44,VALID,0,VALID,91.998,VALID,0,VALID,24.4019,VALID,273,VALID,0.946484,
2012-01-03, 00:55:05,VALID,1000.4,VALID,0,VALID,91.8606,VALID,0,VALID,24.4019,VALID,278,VALID,0.347656,
2012-01-03, 00:56:05,VALID,1000.35,VALID,0,VALID,91.8072,VALID,0,VALID,24.4214,VALID,278,VALID,0.0382813,
2012-01-03, 00:57:05,VALID,1000.29,VALID,0,VALID,91.8225,VALID,0,VALID,24.4214,VALID,268,VALID,0.669531,
2012-01-03, 00:58:05,VALID,1000.26,VALID,0,VALID,91.6012,VALID,0,VALID,24.4019,VALID,128,VALID,0.683594,
2012-01-03, 00:59:05,VALID,1000.25,VALID,0,VALID,91.4334,VALID,0,VALID,24.4019,VALID,128,VALID,0.639844,
2012-01-03, 01:00:05,VALID,1000.23,VALID,0,VALID,91.2503,VALID,0,VALID,24.4037,VALID,128,VALID,0.714844,
2012-01-03, 01:01:05,VALID,1000.26,VALID,0,VALID,91.1587,VALID,0,VALID,24.3842,VALID,128,VALID,0.58125,
2012-01-03, 01:02:05,VALID,1000.25,VALID,0,VALID,91.1129,VALID,0,VALID,24.3824,VALID,128,VALID,0.579297,
2012-01-03, 01:03:05,VALID,1000.24,VALID,0,VALID,90.9374,VALID,0,VALID,24.4037,VALID,128,VALID,0.620703,
2012-01-03, 01:04:05,VALID,1000.19,VALID,0,VALID,90.9374,VALID,0,VALID,24.3629,VALID,128,VALID,0.504687,
2012-01-03, 01:05:05,VALID,1000.18,VALID,0,VALID,90.9909,VALID,0.104696,VALID,24.3842,VALID,128,VALID,0.252344,
2012-01-03, 01:06:05,VALID,1000.16,VALID,0.5,VALID,91.1358,VALID,0,VALID,24.3433,VALID,128,VALID,0.358984,
2012-01-03, 01:07:05,VALID,1000.11,VALID,0,VALID,91.4563,VALID,0,VALID,24.3629,VALID,128,VALID,0.583203,
2012-01-03, 01:08:05,VALID,1000.1,VALID,0,VALID,91.7614,VALID,0,VALID,24.3842,VALID,128,VALID,0.312891,
2012-01-03, 01:09:05,VALID,1000.07,VALID,0,VALID,92.0209,VALID,0,VALID,24.3824,VALID,128,VALID,0.806641,
2012-01-03, 01:10:05,VALID,1000.04,VALID,0.5,VALID,92.2345,VALID,0,VALID,24.4037,VALID,128,VALID,0.430469,
2012-01-03, 01:11:05,VALID,1000.01,VALID,0,VALID,92.3566,VALID,0,VALID,24.4037,VALID,128,VALID,0.700391,
2012-01-03, 01:12:05,VALID,999.965,VALID,0,VALID,92.4634,VALID,0,VALID,24.3842,VALID,130,VALID,0.861719,
2012-01-03, 01:13:05,VALID,999.974,VALID,0.5,VALID,92.4939,VALID,0,VALID,24.3666,VALID,187,VALID,0.739453,
2012-01-03, 01:14:05,VALID,999.954,VALID,0,VALID,92.3337,VALID,0,VALID,24.2866,VALID,187,VALID,0.534375,
2012-01-03, 01:15:05,VALID,999.963,VALID,0,VALID,92.2726,VALID,0,VALID,24.2671,VALID,204,VALID,0.585547,
2012-01-03, 01:16:05,VALID,999.96,VALID,0,VALID,92.265,VALID,0,VALID,24.2671,VALID,212,VALID,0.299219,
2012-01-03, 01:17:05,VALID,999.961,VALID,0,VALID,92.3108,VALID,0,VALID,24.2476,VALID,231,VALID,0.520703,
2012-01-03, 01:18:05,VALID,999.972,VALID,0,VALID,92.3642,VALID,0,VALID,24.2086,VALID,233,VALID,0.300391,
2012-01-03, 01:19:05,VALID,999.96,VALID,0,VALID,92.3947,VALID,0,VALID,24.1891,VALID,233,VALID,0,
2012-01-03, 01:20:05,VALID,999.945,VALID,0,VALID,92.4481,VALID,0,VALID,24.1696,VALID,233,VALID,0,
2012-01-03, 01:21:05,VALID,999.918,VALID,0,VALID,92.4786,VALID,0,VALID,24.15,VALID,233,VALID,0,
2012-01-03, 01:22:05,VALID,999.906,VALID,0,VALID,92.5015,VALID,0,VALID,24.111,VALID,233,VALID,0,
2012-01-03, 01:23:05,VALID,999.882,VALID,0,VALID,92.5168,VALID,0,VALID,24.111,VALID,233,VALID,0,
2012-01-03, 01:24:05,VALID,999.876,VALID,0,VALID,92.6083,VALID,0,VALID,24.1128,VALID,233,VALID,0,
2012-01-03, 01:25:05,VALID,999.87,VALID,0,VALID,92.7075,VALID,0,VALID,24.111,VALID,172,VALID,0.845312,
2012-01-03, 01:26:05,VALID,999.855,VALID,0,VALID,92.9059,VALID,0,VALID,24.1287,VALID,173,VALID,1.775,
2012-01-03, 01:27:05,VALID,999.825,VALID,0,VALID,92.9669,VALID,0,VALID,24.1696,VALID,177,VALID,2.19922,
2012-01-03, 01:28:05,VALID,999.826,VALID,0,VALID,92.9135,VALID,0,VALID,24.1482,VALID,178,VALID,2.33789,
2012-01-03, 01:29:05,VALID,999.813,VALID,0,VALID,92.8372,VALID,0,VALID,24.1696,VALID,176,VALID,2.59141,
2012-01-03, 01:30:05,VALID,999.821,VALID,0,VALID,92.7838,VALID,0,VALID,24.1872,VALID,182,VALID,2.48281,
2012-01-03, 01:31:05,VALID,999.82,VALID,0,VALID,92.6312,VALID,0,VALID,24.1872,VALID,178,VALID,2.37734,
2012-01-03, 01:32:05,VALID,999.769,VALID,0,VALID,92.5778,VALID,0,VALID,24.1891,VALID,184,VALID,1.63281,
2012-01-03, 01:33:05,VALID,999.777,VALID,0,VALID,92.5702,VALID,0,VALID,24.1872,VALID,181,VALID,1.61406,
2012-01-03, 01:34:05,VALID,999.74,VALID,0,VALID,92.6236,VALID,0,VALID,24.1872,VALID,183,VALID,2.13164,
2012-01-03, 01:35:05,VALID,999.723,VALID,0,VALID,92.6694,VALID,0,VALID,24.1891,VALID,174,VALID,1.92383,
2012-01-03, 01:36:05,VALID,999.709,VALID,0,VALID,92.7762,VALID,0,VALID,24.2086,VALID,167,VALID,1.37422,
2012-01-03, 01:37:05,VALID,999.693,VALID,0,VALID,92.7838,VALID,0,VALID,24.1677,VALID,159,VALID,1.5332,
2012-01-03, 01:38:05,VALID,999.698,VALID,0,VALID,92.8143,VALID,0,VALID,24.1891,VALID,167,VALID,1.09922,
2012-01-03, 01:39:05,VALID,999.694,VALID,0,VALID,92.883,VALID,0,VALID,24.1482,VALID,173,VALID,1.42734,
2012-01-03, 01:40:05,VALID,999.705,VALID,0,VALID,92.9135,VALID,0,VALID,24.1696,VALID,180,VALID,1.23945,
2012-01-03, 01:41:05,VALID,999.698,VALID,0,VALID,92.9135,VALID,0,VALID,24.1287,VALID,182,VALID,1.3332,
2012-01-03, 01:42:05,VALID,999.664,VALID,0,VALID,92.9669,VALID,0,VALID,24.15,VALID,199,VALID,1.08008,
2012-01-03, 01:43:05,VALID,999.698,VALID,0,VALID,92.9974,VALID,0,VALID,24.1092,VALID,199,VALID,1.1918,
2012-01-03, 01:44:05,VALID,999.686,VALID,0,VALID,92.9974,VALID,0,VALID,24.1092,VALID,201,VALID,1.28359,
2012-01-03, 01:45:05,VALID,999.684,VALID,0,VALID,93.0432,VALID,0,VALID,24.1092,VALID,195,VALID,1.45,
2012-01-03, 01:46:05,VALID,999.704,VALID,0,VALID,93.028,VALID,0,VALID,24.0897,VALID,183,VALID,0.741016,
2012-01-03, 01:47:05,VALID,999.73,VALID,0,VALID,93.0432,VALID,0,VALID,24.0897,VALID,182,VALID,1.04375,
2012-01-03, 01:48:05,VALID,999.727,VALID,0,VALID,93.0814,VALID,0,VALID,24.0897,VALID,185,VALID,1.02656,
2012-01-03, 01:49:05,VALID,999.748,VALID,0,VALID,92.9593,VALID,0,VALID,24.0506,VALID,186,VALID,0.828125,
2012-01-03, 01:50:05,VALID,999.735,VALID,0,VALID,92.8906,VALID,0,VALID,24.0525,VALID,186,VALID,0.483203,
2012-01-03, 01:51:05,VALID,999.737,VALID,0,VALID,92.8983,VALID,0,VALID,24.0329,VALID,178,VALID,0.678906,
2012-01-03, 01:52:05,VALID,999.745,VALID,0,VALID,92.9517,VALID,0,VALID,24.0525,VALID,167,VALID,0.687891,
2012-01-03, 01:53:05,VALID,999.712,VALID,0,VALID,92.9669,VALID,0,VALID,24.0116,VALID,184,VALID,1.08008,
2012-01-03, 01:54:05,VALID,999.718,VALID,0,VALID,92.9364,VALID,0,VALID,24.0311,VALID,184,VALID,0.796484,
2012-01-03, 01:55:05,VALID,999.714,VALID,0,VALID,92.9517,VALID,0,VALID,24.0329,VALID,182,VALID,1.29844,
2012-01-03, 01:56:05,VALID,999.668,VALID,0,VALID,92.9822,VALID,0,VALID,24.0525,VALID,173,VALID,1.28203,
2012-01-03, 01:57:05,VALID,999.682,VALID,0,VALID,93.0203,VALID,0,VALID,24.0506,VALID,158,VALID,1.26523,
2012-01-03, 01:58:05,VALID,999.674,VALID,0,VALID,93.028,VALID,0,VALID,24.072,VALID,159,VALID,1.0957,
2012-01-03, 01:59:05,VALID,999.661,VALID,0,VALID,93.028,VALID,0,VALID,24.0915,VALID,160,VALID,0.756641,
2012-01-03, 02:00:05,VALID,999.634,VALID,0,VALID,93.0203,VALID,0,VALID,24.072,VALID,160,VALID,0.730859,
2012-01-03, 02:01:05,VALID,999.632,VALID,0,VALID,92.9822,VALID,0,VALID,24.0506,VALID,182,VALID,0.746484,
2012-01-03, 02:02:05,VALID,999.646,VALID,0,VALID,92.9135,VALID,0,VALID,24.0525,VALID,182,VALID,0.490234,
2012-01-03, 02:03:05,VALID,999.623,VALID,0,VALID,92.8983,VALID,0,VALID,24.0116,VALID,182,VALID,0.583594,
2012-01-03, 02:04:05,VALID,999.613,VALID,0,VALID,92.8906,VALID,0,VALID,24.0134,VALID,194,VALID,0.628125,
2012-01-03, 02:05:05,VALID,999.61,VALID,0,VALID,92.883,VALID,0,VALID,24.0116,VALID,210,VALID,0.858203,
2012-01-03, 02:06:05,VALID,999.609,VALID,0,VALID,92.8448,VALID,0,VALID,24.0134,VALID,210,VALID,0.556641,
2012-01-03, 02:07:05,VALID,999.639,VALID,0,VALID,92.822,VALID,0,VALID,24.0116,VALID,210,VALID,0.557813,
2012-01-03, 02:08:05,VALID,999.637,VALID,0,VALID,92.7991,VALID,0,VALID,23.9921,VALID,210,VALID,0.485156,
2012-01-03, 02:09:05,VALID,999.638,VALID,0,VALID,92.7914,VALID,0,VALID,23.9921,VALID,210,VALID,0.573828,
2012-01-03, 02:10:05,VALID,999.636,VALID,0,VALID,92.7228,VALID,0,VALID,23.9939,VALID,204,VALID,0.620313,
2012-01-03, 02:11:05,VALID,999.626,VALID,0,VALID,92.7075,VALID,0,VALID,23.9939,VALID,175,VALID,1.17227,
2012-01-03, 02:12:05,VALID,999.631,VALID,0,VALID,92.6999,VALID,0,VALID,23.9744,VALID,185,VALID,0.973437,
2012-01-03, 02:13:05,VALID,999.573,VALID,0,VALID,92.7609,VALID,0,VALID,23.9726,VALID,182,VALID,1.0793,
2012-01-03, 02:14:05,VALID,999.583,VALID,0,VALID,92.7609,VALID,0,VALID,23.9726,VALID,182,VALID,1.15742,
2012-01-03, 02:15:05,VALID,999.555,VALID,0,VALID,92.7991,VALID,0,VALID,23.9939,VALID,161,VALID,0.813672,
2012-01-03, 02:16:05,VALID,999.551,VALID,0,VALID,92.8296,VALID,0,VALID,24.0134,VALID,157,VALID,0.912109,
2012-01-03, 02:17:05,VALID,999.526,VALID,0,VALID,92.8143,VALID,0,VALID,23.9939,VALID,160,VALID,0.974609,
2012-01-03, 02:18:05,VALID,999.506,VALID,0,VALID,92.7991,VALID,0,VALID,23.9939,VALID,170,VALID,0.907422,
2012-01-03, 02:19:05,VALID,999.505,VALID,0,VALID,92.7762,VALID,0,VALID,23.9744,VALID,173,VALID,0.699609,
2012-01-03, 02:20:05,VALID,999.481,VALID,0,VALID,92.8067,VALID,0,VALID,23.9939,VALID,176,VALID,0.942187,
2012-01-03, 02:21:05,VALID,999.469,VALID,0,VALID,92.7914,VALID,0,VALID,23.9939,VALID,190,VALID,0.886719,
2012-01-03, 02:22:05,VALID,999.454,VALID,0,VALID,92.7609,VALID,0,VALID,23.9726,VALID,201,VALID,1.06445,
2012-01-03, 02:23:05,VALID,999.463,VALID,0,VALID,92.7914,VALID,0,VALID,23.9939,VALID,206,VALID,0.632422,
2012-01-03, 02:24:05,VALID,999.425,VALID,0,VALID,92.7228,VALID,0,VALID,23.9939,VALID,222,VALID,0.791016,
2012-01-03, 02:25:05,VALID,999.41,VALID,0,VALID,92.6312,VALID,0,VALID,23.9726,VALID,224,VALID,0.618359,
2012-01-03, 02:26:05,VALID,999.431,VALID,0,VALID,92.5702,VALID,0,VALID,23.9531,VALID,227,VALID,0.345313,
2012-01-03, 02:27:05,VALID,999.413,VALID,0,VALID,92.4557,VALID,0,VALID,23.9354,VALID,227,VALID,0.249609,
2012-01-03, 02:28:05,VALID,999.431,VALID,0,VALID,92.41,VALID,0,VALID,23.9159,VALID,227,VALID,0.296875,
2012-01-03, 02:29:05,VALID,999.421,VALID,0,VALID,92.3566,VALID,0,VALID,23.875,VALID,227,VALID,0,
2012-01-03, 02:30:05,VALID,999.412,VALID,0,VALID,92.3947,VALID,0,VALID,23.8768,VALID,227,VALID,0,
2012-01-03, 02:31:05,VALID,999.398,VALID,0,VALID,92.4863,VALID,0,VALID,23.8555,VALID,227,VALID,0,
2012-01-03, 02:32:05,VALID,999.379,VALID,0,VALID,92.532,VALID,0,VALID,23.8573,VALID,227,VALID,0,
2012-01-03, 02:33:05,VALID,999.366,VALID,0,VALID,92.5854,VALID,0,VALID,23.8165,VALID,227,VALID,0,
2012-01-03, 02:34:05,VALID,999.353,VALID,0,VALID,92.6083,VALID,0,VALID,23.8183,VALID,227,VALID,0,
2012-01-03, 02:35:05,VALID,999.336,VALID,0,VALID,92.6617,VALID,0,VALID,23.7793,VALID,227,VALID,0,
2012-01-03, 02:36:05,VALID,999.315,VALID,0,VALID,92.6846,VALID,0,VALID,23.7597,VALID,227,VALID,0,
2012-01-03, 02:37:05,VALID,999.336,VALID,0,VALID,92.7151,VALID,0,VALID,23.7597,VALID,227,VALID,0.264844,
2012-01-03, 02:38:05,VALID,999.354,VALID,0,VALID,92.7609,VALID,0,VALID,23.7207,VALID,227,VALID,0.255859,
2012-01-03, 02:39:05,VALID,999.332,VALID,0,VALID,92.7914,VALID,0,VALID,23.6994,VALID,227,VALID,0,
2012-01-03, 02:40:05,VALID,999.352,VALID,0,VALID,92.8296,VALID,0,VALID,23.6994,VALID,227,VALID,0,
2012-01-03, 02:41:05,VALID,999.353,VALID,0,VALID,92.8296,VALID,0,VALID,23.7207,VALID,227,VALID,0,
2012-01-03, 02:42:05,VALID,999.35,VALID,0,VALID,92.8677,VALID,0,VALID,23.7207,VALID,227,VALID,0,
2012-01-03, 02:43:05,VALID,999.352,VALID,0,VALID,92.8906,VALID,0,VALID,23.7012,VALID,227,VALID,0,
2012-01-03, 02:44:05,VALID,999.378,VALID,0,VALID,92.8983,VALID,0,VALID,23.6799,VALID,227,VALID,0.410937,
2012-01-03, 02:45:05,VALID,999.397,VALID,0,VALID,92.8983,VALID,0,VALID,23.7012,VALID,227,VALID,0.700781,
2012-01-03, 02:46:05,VALID,999.393,VALID,0,VALID,92.9135,VALID,0,VALID,23.7012,VALID,227,VALID,0.625,
2012-01-03, 02:47:05,VALID,999.381,VALID,0,VALID,92.9211,VALID,0,VALID,23.7012,VALID,227,VALID,0.696875,
2012-01-03, 02:48:05,VALID,999.406,VALID,0,VALID,92.9211,VALID,0,VALID,23.6817,VALID,260,VALID,0.604297,
2012-01-03, 02:49:05,VALID,999.408,VALID,0,VALID,92.9288,VALID,0,VALID,23.6622,VALID,292,VALID,0.591016,
2012-01-03, 02:50:05,VALID,999.423,VALID,0,VALID,92.9669,VALID,0,VALID,23.6427,VALID,305,VALID,0.667578,
2012-01-03, 02:51:05,VALID,999.424,VALID,0,VALID,93.028,VALID,0,VALID,23.6427,VALID,305,VALID,0.549609,
2012-01-03, 02:52:05,VALID,999.411,VALID,0,VALID,93.0661,VALID,0,VALID,23.6232,VALID,305,VALID,0.467187,
2012-01-03, 02:53:05,VALID,999.408,VALID,0,VALID,93.1577,VALID,0,VALID,23.6214,VALID,305,VALID,0.364062,
2012-01-03, 02:54:05,VALID,999.39,VALID,0,VALID,93.234,VALID,0,VALID,23.6427,VALID,305,VALID,0.487891,
2012-01-03, 02:55:05,VALID,999.407,VALID,0,VALID,93.2645,VALID,0,VALID,23.6019,VALID,305,VALID,0.0683594,
2012-01-03, 02:56:05,VALID,999.39,VALID,0,VALID,93.3179,VALID,0,VALID,23.6036,VALID,305,VALID,0,
2012-01-03, 02:57:05,VALID,999.388,VALID,0,VALID,93.3408,VALID,0,VALID,23.5823,VALID,305,VALID,0,
2012-01-03, 02:58:05,VALID,999.393,VALID,0,VALID,93.3484,VALID,0,VALID,23.5628,VALID,305,VALID,0,
2012-01-03, 02:59:05,VALID,999.412,VALID,0,VALID,93.3713,VALID,0,VALID,23.5628,VALID,305,VALID,0,
2012-01-03, 03:00:05,VALID,999.388,VALID,0,VALID,93.3637,VALID,0,VALID,23.5238,VALID,305,VALID,0,
2012-01-03, 03:01:05,VALID,999.416,VALID,0,VALID,93.3713,VALID,0,VALID,23.5451,VALID,305,VALID,0,
2012-01-03, 03:02:05,VALID,999.424,VALID,0,VALID,93.3484,VALID,0,VALID,23.5256,VALID,305,VALID,0,
2012-01-03, 03:03:05,VALID,999.425,VALID,0,VALID,93.3866,VALID,0,VALID,23.5256,VALID,305,VALID,0,
2012-01-03, 03:04:05,VALID,999.442,VALID,0,VALID,93.4323,VALID,0,VALID,23.5043,VALID,305,VALID,0,
2012-01-03, 03:05:04,VALID,999.473,VALID,0,VALID,93.4705,VALID,0,VALID,23.5238,VALID,305,VALID,0,
2012-01-03, 03:06:04,VALID,999.481,VALID,0,VALID,93.5086,VALID,0,VALID,23.5238,VALID,305,VALID,0,
2012-01-03, 03:07:04,VALID,999.501,VALID,0,VALID,93.5544,VALID,0,VALID,23.5256,VALID,305,VALID,0,
2012-01-03, 03:08:04,VALID,999.525,VALID,0,VALID,93.5468,VALID,0,VALID,23.5256,VALID,305,VALID,0,
2012-01-03, 03:09:04,VALID,999.508,VALID,0,VALID,93.5773,VALID,0,VALID,23.5043,VALID,305,VALID,0,
2012-01-03, 03:10:04,VALID,999.498,VALID,0,VALID,93.5773,VALID,0,VALID,23.5061,VALID,305,VALID,0,
2012-01-03, 03:11:04,VALID,999.47,VALID,0,VALID,93.6078,VALID,0,VALID,23.5061,VALID,305,VALID,0,
2012-01-03, 03:12:04,VALID,999.465,VALID,0,VALID,93.5926,VALID,0,VALID,23.5079,VALID,305,VALID,0,
2012-01-03, 03:13:04,VALID,999.477,VALID,0,VALID,93.5849,VALID,0,VALID,23.4866,VALID,305,VALID,0,
2012-01-03, 03:14:04,VALID,999.448,VALID,0,VALID,93.5544,VALID,0,VALID,23.4866,VALID,305,VALID,0,
2012-01-03, 03:15:04,VALID,999.463,VALID,0,VALID,93.5315,VALID,0,VALID,23.5061,VALID,305,VALID,0,
2012-01-03, 03:16:04,VALID,999.474,VALID,0,VALID,93.5086,VALID,0,VALID,23.5061,VALID,305,VALID,0,
2012-01-03, 03:17:04,VALID,999.484,VALID,0,VALID,93.4628,VALID,0,VALID,23.4866,VALID,305,VALID,0,
2012-01-03, 03:18:04,VALID,999.512,VALID,0,VALID,93.4476,VALID,0,VALID,23.5079,VALID,305,VALID,0,
2012-01-03, 03:19:04,VALID,999.525,VALID,0,VALID,93.4094,VALID,0,VALID,23.4884,VALID,305,VALID,0,
2012-01-03, 03:20:04,VALID,999.539,VALID,0,VALID,93.4094,VALID,0,VALID,23.4866,VALID,305,VALID,0,
2012-01-03, 03:21:04,VALID,999.548,VALID,0,VALID,93.4476,VALID,0,VALID,23.5079,VALID,305,VALID,0,
2012-01-03, 03:22:04,VALID,999.603,VALID,0,VALID,93.4705,VALID,0,VALID,23.5079,VALID,305,VALID,0,
2012-01-03, 03:23:04,VALID,999.614,VALID,0,VALID,93.4781,VALID,0,VALID,23.5061,VALID,305,VALID,0,
2012-01-03, 03:24:04,VALID,999.651,VALID,0,VALID,93.5086,VALID,0,VALID,23.5061,VALID,18,VALID,0.65625,
2012-01-03, 03:25:04,VALID,999.641,VALID,0,VALID,93.5163,VALID,0.104696,VALID,23.5238,VALID,18,VALID,0.414844,
2012-01-03, 03:26:04,VALID,999.638,VALID,0,VALID,93.501,VALID,0,VALID,23.5451,VALID,18,VALID,0.488281,
2012-01-03, 03:27:04,VALID,999.647,VALID,0,VALID,93.5239,VALID,0,VALID,23.5256,VALID,18,VALID,0.614453,
2012-01-03, 03:28:04,VALID,999.667,VALID,0,VALID,93.5697,VALID,0,VALID,23.5238,VALID,20,VALID,0.633984,
2012-01-03, 03:29:04,VALID,999.669,VALID,0,VALID,93.646,VALID,0.104696,VALID,23.5433,VALID,37,VALID,0.859766,
2012-01-03, 03:30:04,VALID,999.672,VALID,0,VALID,93.7451,VALID,0,VALID,23.5841,VALID,39,VALID,1.16719,
2012-01-03, 03:31:04,VALID,999.652,VALID,0,VALID,93.7985,VALID,0,VALID,23.5823,VALID,39,VALID,1.02383,
2012-01-03, 03:32:04,VALID,999.662,VALID,0,VALID,93.8825,VALID,0,VALID,23.6214,VALID,30,VALID,1.28359,
2012-01-03, 03:33:04,VALID,999.712,VALID,0,VALID,93.913,VALID,0,VALID,23.6427,VALID,31,VALID,1.14766,
2012-01-03, 03:34:04,VALID,999.674,VALID,0,VALID,93.9664,VALID,0,VALID,23.6817,VALID,33,VALID,1.10039,
2012-01-03, 03:35:04,VALID,999.67,VALID,0,VALID,94.0198,VALID,0,VALID,23.6799,VALID,33,VALID,1.04766,
2012-01-03, 03:36:04,VALID,999.73,VALID,0,VALID,94.0427,VALID,0,VALID,23.7207,VALID,37,VALID,1.22578,
2012-01-03, 03:37:04,VALID,999.715,VALID,0,VALID,94.0503,VALID,0,VALID,23.7189,VALID,46,VALID,1.23555,
2012-01-03, 03:38:04,VALID,999.707,VALID,0,VALID,94.0656,VALID,0,VALID,23.7189,VALID,46,VALID,0.767578,
2012-01-03, 03:39:04,VALID,999.734,VALID,0,VALID,94.0808,VALID,0,VALID,23.7402,VALID,46,VALID,0.809766,
2012-01-03, 03:40:04,VALID,999.74,VALID,0,VALID,94.0885,VALID,0,VALID,23.7402,VALID,46,VALID,0.6125,
2012-01-03, 03:41:04,VALID,999.741,VALID,0,VALID,94.0808,VALID,0.104696,VALID,23.7189,VALID,46,VALID,0.573438,
2012-01-03, 03:42:04,VALID,999.763,VALID,0,VALID,94.0732,VALID,0,VALID,23.7207,VALID,46,VALID,0.533984,
2012-01-03, 03:43:04,VALID,999.75,VALID,0,VALID,94.0808,VALID,0,VALID,23.7207,VALID,46,VALID,0.480859,
2012-01-03, 03:44:04,VALID,999.767,VALID,0,VALID,94.0885,VALID,0,VALID,23.7189,VALID,46,VALID,0.326562,
2012-01-03, 03:45:04,VALID,999.752,VALID,0,VALID,94.0732,VALID,0,VALID,23.7207,VALID,46,VALID,0.4125,
2012-01-03, 03:46:04,VALID,999.753,VALID,0,VALID,94.0732,VALID,0,VALID,23.7207,VALID,46,VALID,0.655469,
2012-01-03, 03:47:04,VALID,999.767,VALID,0,VALID,94.0732,VALID,0,VALID,23.6994,VALID,64,VALID,0.694141,
2012-01-03, 03:48:04,VALID,999.788,VALID,0,VALID,94.0808,VALID,0,VALID,23.6994,VALID,64,VALID,0.710156,